| time (UTC) | temp F | wind direction | speed knots | gust knots | rain 1hr in | rain 24hr in | rain mn in | humidity % | barometer mb |
| 20260504050012 | 47 | 189 | 2.6 | 10.4 | 0.00 | 0.63 | 0.03 | 92 | 1011.7 |
| 20260504044510 | 47 | 178 | 2.6 | 10.4 | 0.00 | 0.63 | 0.03 | 94 | 1011.8 |
| 20260504043010 | 46 | 161 | 1.7 | 10.4 | 0.00 | 0.63 | 0.03 | 95 | 1011.8 |
| 20260504041508 | 45 | 179 | 3.5 | 12.2 | 0.00 | 0.63 | 0.03 | 95 | 1012.1 |
| 20260504040008 | 45 | 169 | 3.5 | 10.4 | 0.00 | 0.63 | 0.03 | 96 | 1011.9 |
| 20260504034504 | 45 | 181 | 2.6 | 7.8 | 0.00 | 0.63 | 0.03 | 96 | 1011.8 |
| 20260504033002 | 45 | 186 | 1.7 | 8.7 | 0.00 | 0.63 | 0.03 | 97 | 1011.8 |
| 20260504031629 | 44 | 151 | 1.7 | 7.8 | 0.00 | 0.63 | 0.03 | 96 | 1011.6 |
| 20260504030057 | 44 | 175 | 1.7 | 4.3 | 0.00 | 0.63 | 0.03 | 97 | 1011.5 |
| 20260504024556 | 44 | 94 | 0.0 | 3.5 | 0.00 | 0.63 | 0.03 | 96 | 1011.5 |
| 20260504023055 | 44 | 172 | 0.0 | 4.3 | 0.00 | 0.63 | 0.03 | 96 | 1011.5 |
| 20260504021605 | 44 | 155 | 0.0 | 5.2 | 0.00 | 0.63 | 0.03 | 96 | 1011.6 |
| 20260504020051 | 45 | 156 | 0.9 | 4.3 | 0.00 | 0.63 | 0.03 | 96 | 1011.6 |
| 20260504014549 | 45 | 223 | 1.7 | 7.0 | 0.00 | 0.63 | 0.03 | 97 | 1011.4 |
| 20260504013054 | 45 | 119 | 1.7 | 4.3 | 0.00 | 0.63 | 0.03 | 97 | 1011.4 |
| 20260504011550 | 45 | 222 | 0.9 | 4.3 | 0.00 | 0.63 | 0.03 | 97 | 1011.4 |
| 20260504010046 | 45 | 217 | 0.0 | 5.2 | 0.00 | 0.63 | 0.03 | 97 | 1011.5 |
| 20260504004545 | 45 | 201 | 1.7 | 4.3 | 0.00 | 0.63 | 0.03 | 97 | 1011.5 |
| 20260504003047 | 45 | 201 | 0.0 | 5.2 | 0.00 | 0.63 | 0.03 | 97 | 1011.4 |
| 20260504001556 | 45 | 195 | 1.7 | 8.7 | 0.00 | 0.63 | 0.03 | 97 | 1011.6 |
| 20260504000040 | 46 | 192 | 0.9 | 7.0 | 0.00 | 0.63 | 0.03 | 97 | 1011.5 |
| 20260503234538 | 46 | 178 | 1.7 | 7.8 | 0.00 | 0.63 | 0.03 | 97 | 1011.6 |
| 20260503233038 | 46 | 209 | 2.6 | 7.8 | 0.02 | 0.63 | 0.03 | 97 | 1011.6 |
| 20260503231546 | 47 | 205 | 2.6 | 7.8 | 0.03 | 0.63 | 0.03 | 97 | 1011.7 |
| 20260503230041 | 47 | 261 | 0.0 | 7.0 | 0.03 | 0.63 | 0.03 | 97 | 1011.7 |
| 20260503224535 | 47 | 222 | 2.6 | 8.7 | 0.03 | 0.63 | 0.03 | 97 | 1011.7 |
| 20260503223038 | 47 | 186 | 1.7 | 6.1 | 0.01 | 0.61 | 0.01 | 97 | 1011.6 |
| 20260503221535 | 46 | 152 | 0.9 | 6.1 | 0.00 | 0.60 | 0.00 | 97 | 1011.5 |
| 20260503220038 | 46 | 186 | 0.9 | 5.2 | 0.00 | 0.60 | 0.00 | 97 | 1011.6 |
| 20260503214535 | 46 | 245 | 3.5 | 7.8 | 0.00 | 0.60 | 0.00 | 97 | 1011.7 |
| 20260503213047 | 47 | 218 | 0.9 | 7.0 | 0.00 | 0.60 | 0.00 | 97 | 1011.9 |
| 20260503211532 | 47 | 281 | 6.1 | 11.3 | 0.00 | 0.60 | 0.00 | 97 | 1011.8 |
| 20260503210024 | 48 | 237 | 4.3 | 12.2 | 0.00 | 0.60 | 0.00 | 97 | 1011.6 |
| 20260503204521 | 48 | 224 | 4.3 | 13.0 | 0.00 | 0.60 | 0.60 | 97 | 1011.4 |
| 20260503203023 | 49 | 209 | 3.5 | 11.3 | 0.01 | 0.60 | 0.60 | 98 | 1011.4 |
| 20260503201520 | 49 | 220 | 2.6 | 7.8 | 0.01 | 0.60 | 0.60 | 98 | 1011.3 |
| 20260503200016 | 49 | 205 | 4.3 | 10.4 | 0.01 | 0.60 | 0.60 | 98 | 1011.1 |
| 20260503194521 | 49 | 211 | 3.5 | 11.3 | 0.01 | 0.60 | 0.60 | 98 | 1011.3 |
| 20260503193014 | 49 | 225 | 2.6 | 10.4 | 0.00 | 0.59 | 0.59 | 98 | 1011.3 |
| 20260503191511 | 49 | 224 | 1.7 | 9.6 | 0.00 | 0.59 | 0.59 | 98 | 1011.2 |
| 20260503190011 | 49 | 228 | 1.7 | 7.0 | 0.05 | 0.59 | 0.59 | 98 | 1011.1 |
| 20260503184505 | 49 | 228 | 4.3 | 11.3 | 0.05 | 0.59 | 0.59 | 97 | 1011.1 |
| 20260503183042 | 49 | 228 | 4.3 | 13.0 | 0.23 | 0.59 | 0.59 | 97 | 1011.0 |
| 20260503181531 | 49 | 263 | 7.0 | 15.6 | 0.26 | 0.59 | 0.59 | 97 | 1010.6 |
| 20260503180037 | 50 | 216 | 7.0 | 16.5 | 0.21 | 0.54 | 0.54 | 98 | 1010.2 |
| 20260503174545 | 50 | 208 | 7.0 | 13.9 | 0.21 | 0.54 | 0.54 | 97 | 1010.3 |
| 20260503173002 | 50 | 213 | 3.5 | 8.7 | 0.03 | 0.36 | 0.36 | 97 | 1009.9 |
| 20260503171516 | 50 | 211 | 0.9 | 8.7 | 0.00 | 0.33 | 0.33 | 98 | 1009.9 |
| 20260503081518 | 65 | 245 | 7.0 | 13.9 | 0.00 | 0.00 | 0.00 | 66 | 1004.9 |
| 20260503071516 | 70 | 202 | 2.6 | 9.6 | 0.00 | 0.00 | 0.00 | 53 | 1003.8 |